#timestamp,LO_Frequency,Hit,StdDev 
1503730815.1,286047002.8,N,1.2
1503730816.0,286047002.8,N,1.2
1503730835.8,286047004.1,Y,0.0
1503730855.7,286047000.3,P,0.8
1503730875.5,286047000.0,N,0.8
1503730895.3,286047000.7,N,0.7
1503730915.2,286047001.2,N,0.7
1503730935.9,286046998.1,N,1.2
1503730955.7,286046998.1,N,1.4
1503730975.6,286047000.8,N,1.3
1503730995.4,286047000.9,N,1.2
1503731015.2,286047001.2,N,1.2
1503731035.1,286047000.3,N,1.2
1503731036.0,286047000.3,N,1.1
1503731055.8,286046999.9,N,1.1
1503731075.6,286047002.5,N,1.2
1503731095.5,286046999.8,N,1.1
1503731115.3,286047002.3,N,1.2
1503731135.1,286047002.8,N,1.3
1503731155.9,286047000.1,N,1.3
1503731175.7,286047000.1,N,1.2
1503731195.5,286047000.1,N,1.2
1503731215.4,286047002.4,N,1.2
1503731235.2,286046999.7,N,1.2
1503731255.1,286046999.8,N,1.2
1503731256.0,286046999.8,N,1.2
1503731275.8,286047002.0,N,1.2
1503731295.6,286047002.0,N,1.2
1503731315.5,286047001.7,N,1.2
1503731335.3,286047001.5,N,1.2
1503731355.1,286047001.4,N,1.2
1503731375.9,286047004.4,Y,0.0
1503731395.7,286047002.0,P,0.6
1503731415.5,286047001.5,N,0.5
1503731435.4,286047001.5,N,0.4
1503731455.2,286047001.5,Y,0.0
1503731475.0,286047000.3,P,0.6
1503731475.9,286047000.3,N,0.5
1503731495.8,286047000.4,N,0.5
1503731515.6,286047000.2,N,0.5
1503731535.4,286047000.0,N,0.5
1503731555.3,286047000.5,N,0.4
1503731575.1,286047001.0,N,0.4
1503731595.8,286047000.4,N,0.4
1503731615.7,286047000.2,N,0.4
1503731635.5,286046998.1,Y,0.0
1503731655.4,286046998.5,P,1.0
1503731675.2,286047000.8,N,1.0
1503731695.0,286046998.5,N,1.1
1503731695.9,286046998.5,N,1.1
1503731715.8,286046998.4,N,1.0
1503731735.6,286046998.3,N,1.0
1503731755.4,286047001.1,N,1.2
1503731775.3,286046998.1,N,1.2
1503731795.1,286047001.2,N,1.2
1503731796.0,286047001.2,N,1.3
1503731815.8,286047001.0,N,1.3
1503731835.7,286047000.7,N,1.3
1503731855.5,286047000.6,N,1.3
1503731875.3,286047000.9,N,1.2
1503731895.2,286047001.0,N,1.2
1503731915.9,286047000.0,N,1.2
1503731935.7,286047000.3,N,1.2
1503731955.6,286047000.5,N,1.1
1503731975.4,286046999.8,N,1.1
1503731995.2,286047000.4,N,1.1
1503732015.1,286047000.2,N,1.1
1503732016.0,286047000.2,N,1.0
1503732035.8,286047000.4,N,1.0
1503732055.6,286047001.0,N,1.0
1503732075.5,286047000.5,N,1.0
1503732095.3,286047000.4,N,1.0
1503732115.1,286047000.2,N,1.0
1503732135.9,286046998.1,N,1.0
1503732155.7,286047000.6,N,1.0
1503732175.5,286047000.3,N,1.0
1503732195.4,286047000.9,N,1.0
1503732215.2,286047000.4,N,1.0
1503732235.0,286047000.3,N,0.9
1503732235.9,286047000.3,N,0.9
1503732255.8,286047000.1,N,0.8
1503732275.6,286047002.3,N,0.8
1503732295.5,286047000.3,N,0.8
1503732315.3,286046999.8,N,0.7
1503732335.1,286047002.4,Y,0.0
1503732355.9,286047000.3,P,0.1
1503732375.7,286047000.4,P,0.1
1503732395.5,286047000.5,P,0.1
1503732415.4,286047000.4,Y,0.0
1503732435.2,286047000.5,P,0.0
1503732455.0,286047002.7,P,1.1
1503732455.9,286047002.7,N,1.1
1503732475.8,286047000.0,N,1.2
1503732495.6,286047000.3,N,1.1
1503732515.4,286047000.3,N,1.1
1503732535.3,286046999.9,N,1.1
1503732555.1,286047000.2,N,1.0
1503732575.8,286047000.4,N,1.0
1503732595.7,286047000.4,N,1.0
1503732615.5,286047001.5,N,0.9
1503732635.4,286046999.9,N,0.9
1503732655.2,286047000.4,N,0.9
1503732675.0,286047000.5,N,0.9
1503732675.9,286047000.5,N,0.8
1503732695.8,286047000.4,N,0.8
1503732715.6,286047000.1,N,0.8
1503732735.4,286047000.4,N,0.8
1503732755.3,286046999.9,N,0.8
1503732775.1,286047000.3,N,0.8
1503732776.0,286047000.3,N,0.8
1503732795.8,286047000.5,N,0.7
1503732815.7,286047000.4,N,0.7
1503732835.5,286047000.5,N,0.7
1503732855.3,286046999.7,N,0.7
1503732875.2,286047002.7,Y,0.0
1503732895.0,286046999.9,P,0.3
1503732895.9,286046999.9,N,0.3
1503732915.7,286047000.4,N,0.3
1503732935.6,286047000.2,N,0.2
1503732955.4,286047002.7,Y,0.0
1503732975.2,286047002.3,P,1.1
1503732995.1,286047002.3,N,1.0
1503732996.0,286047002.3,N,0.9
1503733015.8,286046999.8,N,1.1
1503733035.7,286047000.2,N,1.1
1503733055.5,286047000.4,N,1.1
1503733075.3,286047000.8,N,1.0
1503733095.2,286047000.6,N,1.0
1503733115.9,286046998.9,N,1.1
1503733135.7,286047000.6,N,1.1
1503733155.6,286047000.5,N,1.0
1503733175.4,286046999.9,N,1.0
1503733195.2,286047000.4,N,1.0
1503733215.1,286046999.9,N,1.0
1503733216.0,286046999.9,N,0.9
1503733235.8,286047000.3,N,0.9
1503733255.6,286047000.3,N,0.9
1503733275.5,286046999.7,N,0.9
1503733295.3,286046999.9,N,0.9
1503733315.1,286046998.1,N,1.0
1503733335.9,286046998.7,N,1.0
1503733355.7,286046998.2,N,1.1
1503733375.5,286046998.7,N,1.1
1503733395.4,286046998.8,N,1.1
1503733415.2,286047001.2,N,1.1
1503733435.0,286046998.6,N,1.1
1503733435.9,286046998.6,N,1.1
1503733455.8,286047000.7,N,1.1
1503733475.6,286047000.4,N,1.1
1503733495.4,286046999.9,N,1.1
1503733515.3,286047000.6,N,1.0
1503733535.1,286047000.6,N,0.9
1503733555.8,286047000.6,N,0.9
1503733575.7,286046998.6,N,0.9
1503733595.5,286047000.8,N,0.9
1503733615.3,286046998.3,N,0.9
1503733635.2,286046998.4,N,0.9
1503733655.0,286046998.4,N,1.0
1503733655.9,286046998.4,N,1.0
1503733675.8,286046998.6,N,1.0
1503733695.6,286046998.4,N,1.0
1503733715.4,286046998.2,N,1.0
1503733735.3,286047001.0,N,1.0
1503733755.1,286047000.0,N,1.0
1503733756.0,286047000.0,N,1.0
1503733775.8,286047000.9,N,1.0
1503733795.7,286046998.2,N,1.1
1503733815.5,286047001.1,N,1.1
1503733835.3,286047000.6,N,1.1
1503733855.2,286047000.8,N,1.1
1503733875.9,286047000.7,N,1.1
1503733895.7,286047000.8,N,1.1
1503733915.6,286047000.7,N,1.1
1503733935.4,286047000.1,N,1.1
1503733955.2,286047000.0,N,1.1
1503733975.1,286047000.4,N,1.0
1503733976.0,286047000.4,N,1.0
1503733995.8,286047000.0,N,1.0
1503734015.6,286047000.4,N,1.0
1503734035.5,286046999.9,N,1.0
1503734055.3,286046999.9,N,1.0
1503734075.1,286046999.8,N,1.0
1503734095.9,286047000.6,N,1.0
1503734115.7,286046999.9,N,1.0
1503734135.5,286047002.8,N,1.1
1503734155.4,286046999.8,N,1.1
1503734175.2,286047000.2,N,1.0
1503734195.0,286047002.4,N,1.0
1503734195.9,286047002.4,N,1.1
1503734215.8,286046999.8,N,1.0
1503734235.6,286047000.9,N,1.0
1503734255.5,286047002.6,N,1.0
1503734275.3,286047002.3,N,1.0
1503734295.1,286047002.8,N,1.1
1503734315.9,286047002.7,N,1.1
1503734335.7,286046999.7,N,1.1
1503734355.5,286047000.1,N,1.0
1503734375.4,286047000.0,N,1.0
1503734395.2,286047000.4,N,1.0
